When you browse on this site, cookies collect data to enhance your experience and personalize the content and advertising you see.
Visit our Privacy Policy to learn more. By continuing to use the site, you agree to this use of cookies and data.
  • In Hungary
  • List of Countries
  • For 7 days
  • Water Temperature
  • Weather Map
  • News
  • Weather Widgets
  • user-avatar
    Login

    Hourly Weather Bouake

    Today, 17 November, Sunday

    Time Temperature Precipitation Wind Pressure Humidity
    00:00 +27°C° 0 mm 1 mps 728 mmHg 65%
    01:00 +26°C° 0 mm 1 mps 728 mmHg 68%
    02:00 +26°C° 0 mm 1 mps 727 mmHg 71%
    03:00 +25°C° 0 mm 1 mps 727 mmHg 74%
    04:00 +25°C° 0 mm 1 mps 727 mmHg 76%
    05:00 +25°C° 0 mm 1 mps 727 mmHg 79%
    06:00 +24°C° 0 mm 1 mps 728 mmHg 81%
    07:00 +26°C° 0 mm 1 mps 728 mmHg 76%
    08:00 +28°C° 0 mm 1 mps 729 mmHg 72%
    09:00 +29°C° 0 mm 1 mps 729 mmHg 67%
    10:00 +31°C° 0 mm 1 mps 729 mmHg 60%
    11:00 +33°C° 0 mm 1 mps 729 mmHg 53%
    12:00 +34°C° 0 mm 0 mps 729 mmHg 46%
    13:00 +35°C° 0 mm 1 mps 728 mmHg 44%
    14:00 +35°C° 0 mm 1 mps 727 mmHg 41%
    15:00 +36°C° 0 mm 2 mps 726 mmHg 39%
    16:00 +34°C° 0 mm 2 mps 726 mmHg 46%
    17:00 +32°C° 0 mm 2 mps 726 mmHg 52%
    18:00 +30°C° 0 mm 2 mps 726 mmHg 59%
    19:00 +29°C° 0 mm 1 mps 727 mmHg 60%
    20:00 +29°C° 0 mm 1 mps 727 mmHg 62%
    21:00 +28°C° 0 mm 1 mps 728 mmHg 63%
    22:00 +28°C° 0 mm 1 mps 728 mmHg 65%
    23:00 +27°C° 0 mm 1 mps 728 mmHg 66%

    Tomorrow, 18 November, Monday

    Time Temperature Precipitation Wind Pressure Humidity
    00:00 +27°C° 0 mm 1 mps 728 mmHg 68%
    01:00 +26°C° 0 mm 1 mps 728 mmHg 70%
    02:00 +26°C° 0 mm 1 mps 727 mmHg 73%
    03:00 +26°C° 0 mm 1 mps 727 mmHg 75%
    04:00 +25°C° 0 mm 1 mps 727 mmHg 78%
    05:00 +25°C° 0 mm 1 mps 727 mmHg 81%
    06:00 +24°C° 0 mm 1 mps 727 mmHg 84%
    07:00 +26°C° 0 mm 1 mps 728 mmHg 79%
    08:00 +28°C° 0 mm 1 mps 728 mmHg 74%
    09:00 +29°C° 0 mm 1 mps 729 mmHg 70%
    10:00 +32°C° 0 mm 1 mps 729 mmHg 62%
    11:00 +32°C° 0 mm 0 mps 729 mmHg 55%
    12:00 +34°C° 0 mm 0 mps 728 mmHg 47%
    13:00 +34°C° 0 mm 0 mps 728 mmHg 45%
    14:00 +35°C° 0 mm 1 mps 727 mmHg 43%
    15:00 +35°C° 0 mm 1 mps 726 mmHg 41%
    16:00 +33°C° 0 mm 1 mps 726 mmHg 47%
    17:00 +32°C° 0 mm 1 mps 726 mmHg 53%
    18:00 +30°C° 0 mm 1 mps 727 mmHg 59%
    19:00 +29°C° 0 mm 1 mps 727 mmHg 62%
    20:00 +29°C° 0 mm 1 mps 728 mmHg 64%
    21:00 +28°C° 0 mm 1 mps 728 mmHg 67%
    22:00 +27°C° 0 mm 2 mps 728 mmHg 71%
    23:00 +27°C° 0 mm 2 mps 728 mmHg 74%

    Day after tomorrow, 19 November, Tuesday

    Time Temperature Precipitation Wind Pressure Humidity
    00:00 +26°C° 0 mm 2 mps 728 mmHg 78%
    01:00 +26°C° 0 mm 2 mps 728 mmHg 81%
    02:00 +25°C° 0 mm 2 mps 727 mmHg 83%
    03:00 +25°C° 0 mm 2 mps 727 mmHg 86%
    04:00 +25°C° 0 mm 2 mps 727 mmHg 88%
    05:00 +24°C° 0 mm 1 mps 728 mmHg 91%
    06:00 +24°C° 0 mm 1 mps 728 mmHg 93%
    07:00 +26°C° 0 mm 1 mps 729 mmHg 86%
    08:00 +27°C° 0 mm 1 mps 729 mmHg 80%
    09:00 +29°C° 0 mm 1 mps 730 mmHg 73%
    10:00 +30°C° 0 mm 1 mps 729 mmHg 68%
    11:00 +31°C° 0 mm 1 mps 729 mmHg 63%
    12:00 +33°C° 0 mm 1 mps 729 mmHg 58%
    13:00 +33°C° 0.2 mm 1 mps 728 mmHg 56%
    14:00 +31°C° 0.2 mm 0 mps 728 mmHg 55%
    15:00 +32°C° 0.2 mm 0 mps 727 mmHg 53%
    16:00 +30°C° 0.1 mm 0 mps 727 mmHg 58%
    17:00 +29°C° 0.1 mm 0 mps 727 mmHg 62%
    18:00 +27°C° 0.1 mm 0 mps 727 mmHg 67%
    19:00 +29°C° 0 mm 1 mps 727 mmHg 69%
    20:00 +28°C° 0 mm 1 mps 728 mmHg 70%
    21:00 +27°C° 0 mm 1 mps 728 mmHg 72%
    22:00 +27°C° 0 mm 1 mps 728 mmHg 75%
    23:00 +26°C° 0 mm 2 mps 728 mmHg 79%

    20 November, Wednesday

    Time Temperature Precipitation Wind Pressure Humidity
    00:00 +26°C° 0 mm 2 mps 728 mmHg 82%
    01:00 +25°C° 0 mm 2 mps 728 mmHg 84%
    02:00 +25°C° 0 mm 1 mps 727 mmHg 85%
    03:00 +24°C° 0 mm 1 mps 727 mmHg 87%
    04:00 +24°C° 0 mm 1 mps 727 mmHg 89%
    05:00 +24°C° 0 mm 1 mps 728 mmHg 90%
    06:00 +24°C° 0 mm 1 mps 728 mmHg 91%
    07:00 +25°C° 0 mm 1 mps 729 mmHg 86%
    08:00 +27°C° 0 mm 1 mps 729 mmHg 80%
    09:00 +28°C° 0 mm 2 mps 730 mmHg 75%
    10:00 +30°C° 0 mm 2 mps 729 mmHg 68%
    11:00 +31°C° 0 mm 2 mps 729 mmHg 61%
    12:00 +34°C° 0 mm 2 mps 729 mmHg 54%
    13:00 +35°C° 0 mm 2 mps 728 mmHg 51%
    14:00 +34°C° 0 mm 1 mps 728 mmHg 48%
    15:00 +34°C° 0 mm 1 mps 727 mmHg 45%
    16:00 +33°C° 0 mm 1 mps 727 mmHg 52%
    17:00 +31°C° 0 mm 1 mps 727 mmHg 58%
    18:00 +30°C° 0 mm 1 mps 727 mmHg 64%
    19:00 +29°C° 0 mm 1 mps 727 mmHg 67%
    20:00 +28°C° 0 mm 1 mps 728 mmHg 69%
    21:00 +26°C° 0 mm 0 mps 728 mmHg 71%
    22:00 +27°C° 0 mm 1 mps 728 mmHg 73%
    23:00 +27°C° 0 mm 1 mps 728 mmHg 76%

    21 November, Thursday

    Time Temperature Precipitation Wind Pressure Humidity
    00:00 +26°C° 0 mm 1 mps 728 mmHg 78%
    01:00 +26°C° 0 mm 1 mps 728 mmHg 81%
    02:00 +25°C° 0 mm 2 mps 727 mmHg 84%
    03:00 +25°C° 0 mm 2 mps 727 mmHg 87%
    04:00 +25°C° 0.2 mm 2 mps 727 mmHg 89%
    05:00 +24°C° 0.2 mm 2 mps 727 mmHg 92%
    06:00 +24°C° 0.2 mm 2 mps 727 mmHg 94%
    07:00 +25°C° 0 mm 2 mps 728 mmHg 88%
    08:00 +27°C° 0 mm 2 mps 729 mmHg 82%
    09:00 +28°C° 0 mm 2 mps 729 mmHg 76%
    10:00 +31°C° 0 mm 1 mps 729 mmHg 68%
    11:00 +33°C° 0 mm 1 mps 729 mmHg 59%
    12:00 +35°C° 0 mm 1 mps 728 mmHg 51%
    13:00 +33°C° 0.2 mm 0 mps 728 mmHg 51%
    14:00 +33°C° 0.2 mm 0 mps 727 mmHg 50%
    15:00 +32°C° 0.2 mm 0 mps 727 mmHg 50%
    16:00 +33°C° 0.1 mm 1 mps 727 mmHg 56%
    17:00 +31°C° 0.1 mm 1 mps 727 mmHg 63%
    18:00 +29°C° 0.1 mm 2 mps 726 mmHg 69%
    19:00 +29°C° 0.1 mm 2 mps 727 mmHg 72%
    20:00 +28°C° 0.1 mm 2 mps 728 mmHg 75%
    21:00 +27°C° 0.1 mm 2 mps 728 mmHg 78%
    22:00 +27°C° 0 mm 2 mps 728 mmHg 80%
    23:00 +26°C° 0 mm 2 mps 728 mmHg 82%

    22 November, Friday

    Time Temperature Precipitation Wind Pressure Humidity
    00:00 +26°C° 0 mm 2 mps 728 mmHg 85%
    01:00 +25°C° 0 mm 2 mps 728 mmHg 87%
    02:00 +25°C° 0 mm 2 mps 728 mmHg 89%
    03:00 +24°C° 0 mm 2 mps 727 mmHg 91%
    04:00 +24°C° 0 mm 2 mps 727 mmHg 92%
    05:00 +24°C° 0 mm 2 mps 728 mmHg 93%
    06:00 +24°C° 0 mm 2 mps 728 mmHg 94%
    07:00 +25°C° 0 mm 2 mps 728 mmHg 88%
    08:00 +27°C° 0 mm 2 mps 729 mmHg 82%
    09:00 +28°C° 0 mm 2 mps 730 mmHg 77%
    10:00 +29°C° 0 mm 2 mps 729 mmHg 71%
    11:00 +31°C° 0 mm 2 mps 729 mmHg 65%
    12:00 +32°C° 0 mm 2 mps 728 mmHg 59%
    13:00 +32°C° 0.2 mm 2 mps 728 mmHg 59%
    14:00 +32°C° 0.2 mm 1 mps 727 mmHg 59%
    15:00 +32°C° 0.2 mm 1 mps 726 mmHg 59%
    16:00 +31°C° 0.2 mm 1 mps 726 mmHg 63%
    17:00 +30°C° 0.2 mm 1 mps 727 mmHg 67%
    18:00 +28°C° 0.2 mm 1 mps 727 mmHg 71%
    19:00 +28°C° 0 mm 2 mps 727 mmHg 74%
    20:00 +27°C° 0 mm 2 mps 728 mmHg 77%
    21:00 +26°C° 0 mm 2 mps 728 mmHg 80%
    22:00 +26°C° 0 mm 2 mps 728 mmHg 81%
    23:00 +26°C° 0 mm 2 mps 728 mmHg 83%
    Show more